When you browse on this site, cookies collect data to enhance your experience and personalize the content and advertising you see.
Visit our Privacy Policy to learn more. By continuing to use the site, you agree to this use of cookies and data.
  • In Austria
  • List of Countries
  • For 7 days
  • Water Temperature
  • Satellite Maps
  • Weather Map
  • News
  • Weather Widgets
  • user-avatar
    Login

    Hourly Weather Sankt Polten

    Today, 20 July, Saturday

    Time Temperature Precipitation Wind Pressure Humidity
    00:00 +19°C° 0 mm 1 mps 737 mmHg 81%
    01:00 +19°C° 0 mm 1 mps 736 mmHg 85%
    02:00 +18°C° 0 mm 1 mps 736 mmHg 86%
    03:00 +18°C° 0 mm 1 mps 736 mmHg 86%
    04:00 +16°C° 0 mm 0 mps 736 mmHg 87%
    05:00 +17°C° 0 mm 0 mps 736 mmHg 83%
    06:00 +19°C° 0 mm 0 mps 737 mmHg 79%
    07:00 +20°C° 0 mm 0 mps 737 mmHg 76%
    08:00 +22°C° 0 mm 0 mps 737 mmHg 68%
    09:00 +26°C° 0 mm 1 mps 737 mmHg 61%
    10:00 +28°C° 0 mm 1 mps 737 mmHg 54%
    11:00 +29°C° 0 mm 1 mps 737 mmHg 52%
    12:00 +30°C° 0 mm 1 mps 736 mmHg 49%
    13:00 +31°C° 0 mm 2 mps 736 mmHg 47%
    14:00 +31°C° 0 mm 1 mps 736 mmHg 47%
    15:00 +31°C° 0 mm 1 mps 736 mmHg 47%
    16:00 +31°C° 0 mm 1 mps 736 mmHg 47%
    17:00 +30°C° 0 mm 1 mps 736 mmHg 55%
    18:00 +26°C° 0 mm 0 mps 736 mmHg 64%
    19:00 +24°C° 0 mm 0 mps 736 mmHg 72%
    20:00 +23°C° 0 mm 0 mps 736 mmHg 73%
    21:00 +24°C° 0 mm 1 mps 736 mmHg 75%
    22:00 +23°C° 0 mm 1 mps 737 mmHg 76%
    23:00 +23°C° 0 mm 1 mps 737 mmHg 75%

    Tomorrow, 21 July, Sunday

    Time Temperature Precipitation Wind Pressure Humidity
    00:00 +22°C° 0 mm 1 mps 737 mmHg 74%
    01:00 +22°C° 0 mm 1 mps 737 mmHg 73%
    02:00 +22°C° 0 mm 1 mps 737 mmHg 72%
    03:00 +21°C° 0 mm 2 mps 737 mmHg 72%
    04:00 +21°C° 0 mm 2 mps 737 mmHg 71%
    05:00 +21°C° 0.6 mm 2 mps 737 mmHg 77%
    06:00 +23°C° 0.6 mm 2 mps 738 mmHg 83%
    07:00 +23°C° 0.6 mm 2 mps 738 mmHg 89%
    08:00 +24°C° 0.1 mm 2 mps 738 mmHg 82%
    09:00 +25°C° 0.1 mm 2 mps 739 mmHg 76%
    10:00 +26°C° 0.1 mm 3 mps 739 mmHg 70%
    11:00 +25°C° 0.4 mm 3 mps 739 mmHg 76%
    12:00 +24°C° 0.4 mm 3 mps 739 mmHg 81%
    13:00 +23°C° 0.4 mm 2 mps 739 mmHg 87%
    14:00 +22°C° 0.1 mm 3 mps 739 mmHg 84%
    15:00 +24°C° 0.1 mm 3 mps 739 mmHg 81%
    16:00 +24°C° 0.1 mm 3 mps 739 mmHg 78%
    17:00 +24°C° 0.4 mm 3 mps 740 mmHg 82%
    18:00 +23°C° 0.4 mm 2 mps 740 mmHg 86%
    19:00 +23°C° 0.4 mm 2 mps 740 mmHg 90%
    20:00 +21°C° 0.2 mm 2 mps 740 mmHg 91%
    21:00 +20°C° 0.2 mm 2 mps 741 mmHg 92%
    22:00 +19°C° 0.2 mm 2 mps 741 mmHg 93%
    23:00 +19°C° 0.1 mm 2 mps 742 mmHg 93%

    Day after tomorrow, 22 July, Monday

    Time Temperature Precipitation Wind Pressure Humidity
    00:00 +18°C° 0.1 mm 2 mps 742 mmHg 93%
    01:00 +18°C° 0.1 mm 2 mps 742 mmHg 93%
    02:00 +18°C° 0 mm 1 mps 742 mmHg 93%
    03:00 +18°C° 0 mm 1 mps 742 mmHg 94%
    04:00 +18°C° 0 mm 1 mps 742 mmHg 94%
    05:00 +19°C° 0 mm 1 mps 742 mmHg 93%
    06:00 +20°C° 0 mm 1 mps 742 mmHg 91%
    07:00 +21°C° 0 mm 1 mps 742 mmHg 90%
    08:00 +22°C° 0 mm 1 mps 742 mmHg 79%
    09:00 +24°C° 0 mm 1 mps 743 mmHg 69%
    10:00 +26°C° 0 mm 2 mps 743 mmHg 59%
    11:00 +27°C° 0 mm 2 mps 743 mmHg 55%
    12:00 +28°C° 0 mm 2 mps 742 mmHg 50%
    13:00 +28°C° 0 mm 2 mps 742 mmHg 46%
    14:00 +28°C° 0 mm 2 mps 742 mmHg 47%
    15:00 +28°C° 0 mm 2 mps 742 mmHg 48%
    16:00 +28°C° 0 mm 1 mps 742 mmHg 49%
    17:00 +27°C° 0 mm 1 mps 741 mmHg 56%
    18:00 +25°C° 0 mm 1 mps 741 mmHg 64%
    19:00 +22°C° 0 mm 0 mps 741 mmHg 72%
    20:00 +20°C° 0 mm 0 mps 742 mmHg 74%
    21:00 +19°C° 0 mm 0 mps 742 mmHg 77%
    22:00 +18°C° 0 mm 0 mps 742 mmHg 80%
    23:00 +19°C° 0 mm 1 mps 742 mmHg 81%

    23 July, Tuesday

    Time Temperature Precipitation Wind Pressure Humidity
    00:00 +19°C° 0 mm 1 mps 742 mmHg 81%
    01:00 +19°C° 0 mm 1 mps 742 mmHg 82%
    02:00 +18°C° 0 mm 1 mps 742 mmHg 83%
    03:00 +18°C° 0 mm 1 mps 741 mmHg 84%
    04:00 +18°C° 0 mm 1 mps 741 mmHg 84%
    05:00 +17°C° 0 mm 0 mps 741 mmHg 80%
    06:00 +19°C° 0 mm 0 mps 741 mmHg 75%
    07:00 +21°C° 0 mm 0 mps 741 mmHg 71%
    08:00 +22°C° 0 mm 0 mps 741 mmHg 64%
    09:00 +26°C° 0 mm 1 mps 741 mmHg 58%
    10:00 +28°C° 0 mm 1 mps 741 mmHg 51%
    11:00 +28°C° 0 mm 1 mps 741 mmHg 49%
    12:00 +29°C° 0 mm 1 mps 741 mmHg 47%
    13:00 +30°C° 0 mm 1 mps 740 mmHg 46%
    14:00 +30°C° 0 mm 1 mps 740 mmHg 46%
    15:00 +30°C° 0 mm 1 mps 740 mmHg 47%
    16:00 +30°C° 0 mm 1 mps 739 mmHg 48%
    17:00 +28°C° 0 mm 1 mps 739 mmHg 56%
    18:00 +26°C° 0 mm 1 mps 739 mmHg 65%
    19:00 +25°C° 0 mm 1 mps 739 mmHg 73%
    20:00 +23°C° 0 mm 1 mps 739 mmHg 75%
    21:00 +22°C° 0 mm 1 mps 739 mmHg 78%
    22:00 +21°C° 0 mm 1 mps 740 mmHg 81%
    23:00 +20°C° 0 mm 1 mps 740 mmHg 82%

    24 July, Wednesday

    Time Temperature Precipitation Wind Pressure Humidity
    00:00 +20°C° 0 mm 1 mps 740 mmHg 83%
    01:00 +19°C° 0 mm 1 mps 739 mmHg 85%
    02:00 +19°C° 0 mm 1 mps 739 mmHg 86%
    03:00 +19°C° 0 mm 1 mps 739 mmHg 87%
    04:00 +18°C° 0 mm 1 mps 739 mmHg 89%
    05:00 +20°C° 0 mm 1 mps 739 mmHg 84%
    06:00 +22°C° 0 mm 1 mps 739 mmHg 79%
    07:00 +23°C° 0 mm 1 mps 739 mmHg 74%
    08:00 +25°C° 0 mm 1 mps 739 mmHg 68%
    09:00 +26°C° 0 mm 2 mps 739 mmHg 62%
    10:00 +28°C° 0 mm 2 mps 739 mmHg 57%
    11:00 +29°C° 0 mm 2 mps 739 mmHg 55%
    12:00 +29°C° 0 mm 3 mps 739 mmHg 52%
    13:00 +30°C° 0 mm 3 mps 739 mmHg 50%
    14:00 +30°C° 0 mm 3 mps 738 mmHg 51%
    15:00 +30°C° 0 mm 3 mps 738 mmHg 51%
    16:00 +30°C° 0 mm 3 mps 738 mmHg 52%
    17:00 +28°C° 0 mm 2 mps 738 mmHg 59%
    18:00 +26°C° 0 mm 2 mps 738 mmHg 66%
    19:00 +25°C° 0 mm 1 mps 738 mmHg 74%
    20:00 +24°C° 0 mm 1 mps 738 mmHg 76%
    21:00 +22°C° 0 mm 1 mps 738 mmHg 79%
    22:00 +20°C° 0 mm 2 mps 739 mmHg 81%
    23:00 +21°C° 0 mm 1 mps 739 mmHg 83%

    25 July, Thursday

    Time Temperature Precipitation Wind Pressure Humidity
    00:00 +21°C° 0 mm 1 mps 739 mmHg 85%
    01:00 +20°C° 0 mm 1 mps 739 mmHg 87%
    02:00 +20°C° 0 mm 1 mps 739 mmHg 88%
    03:00 +20°C° 0 mm 1 mps 739 mmHg 90%
    04:00 +19°C° 0 mm 1 mps 738 mmHg 91%
    05:00 +21°C° 0 mm 1 mps 739 mmHg 86%
    06:00 +22°C° 0 mm 1 mps 739 mmHg 81%
    07:00 +24°C° 0 mm 2 mps 739 mmHg 76%
    08:00 +25°C° 0 mm 2 mps 739 mmHg 70%
    09:00 +27°C° 0 mm 3 mps 739 mmHg 63%
    10:00 +29°C° 0 mm 3 mps 739 mmHg 56%
    11:00 +30°C° 0 mm 4 mps 739 mmHg 53%
    12:00 +32°C° 0 mm 4 mps 739 mmHg 49%
    13:00 +33°C° 0 mm 4 mps 738 mmHg 45%
    14:00 +33°C° 0 mm 4 mps 738 mmHg 45%
    15:00 +33°C° 0 mm 4 mps 738 mmHg 45%
    16:00 +33°C° 0 mm 5 mps 738 mmHg 46%
    17:00 +30°C° 0 mm 4 mps 737 mmHg 52%
    18:00 +29°C° 0 mm 3 mps 737 mmHg 59%
    19:00 +27°C° 0 mm 3 mps 737 mmHg 66%
    20:00 +26°C° 0 mm 3 mps 737 mmHg 68%
    21:00 +24°C° 0 mm 3 mps 738 mmHg 71%
    22:00 +23°C° 0 mm 2 mps 738 mmHg 73%
    23:00 +21°C° 0 mm 2 mps 738 mmHg 76%
    Show more